STARLINK-1886 (47169 NORAD) Tracking and Keplerian Element Data

This shows tracking and keplerian element data for the satellite.

Feedback or suggestion? Click here.




ElementValue
Catalog47169
NameSTARLINK-1886
Epoch Orbit973
Epoch Day21.16668981
Epoch Year2021
RAAN73.8414
Inclination53.054
Eccentricity0.0006946
Argument of Perigee288.8647
Mean Anonmoly34.5222
Mean Motion15.60043748
Decay Rate0.00019707
L11 47169U 20088AZ 21021.16668981 .00019707 00000-0 24446-3 0 9993
L22 47169 53.0540 73.8414 0006946 288.8647 34.5222 15.60043748 9736

Live tracking and technical data element details for STARLINK-1886 (NORAD 47169). STARLINK-1886 can be tracked NOW for your location showing map with azimuth and elevation plus other details from your city location.

Track the satellite on the map from your city or location and see movement details for azimuth, elevation, latitude, longitude, range, height, and movement on the map or in text.







IsCatalogInMostPopularTable: catalog: 47169, numindb: 29
Update: records affected: 1



GetName: 47169 STARLINK-1886

Hit Count: updated at: Sat, 23 Jan 2021 17:07:21 GMT